7 * 24
多渠道服务支持
STARLINK-37004(NORAD编号68089)是美国SpaceX公司星链(Starlink)卫星互联网星座的一员,属于低轨(LEO)通信卫星。作为星链大规模组网部署的卫星之一,它运行在近地轨道,承担全球互联网覆盖任务,为偏远地区、海洋和空中提供高速低延迟的互联服务。该卫星配备相控阵天线,部分型号搭载激光星间链路,可提升单星通信容量与网络传输效率,支持家庭及商业用户接入,是SpaceX全球卫星互联网布局的组成部分,目前在轨运行,服务全球互联互通。
美国
(US)
| 数据来源 | 国际轨道数据 |
| 星历时间: | 2026-07-27T14:05:43+0800 20小时前 查看轨道信息 |
| 半长轴: | 6840.853km |
| 偏心率: | 0.000125 |
| 轨道倾角: | 53.157° |
| 近地点辐角 | 97.633° |
| 升交点赤经 | 248.298° |
| 平近点角 | 262.481° |
| 近地点: | 461.86km |
| 远地点: | 463.572km |
| 周期: | 93.848分钟 |
| 每日圈数: | 15.34396 |